Location: Unspecified
(0.0000°N, 0.0000°E)
Time: 11:04:21
(UTC+00:00)

Envisat - Pass Details

Date: 21 October 2018
Orbit: 764 x 766 km, 98.1° (Epoch: 06 July)

Event Time Altitude Azimuth Distance (km) Brightness Sun altitude
Rises 19:08:17 0° 159° (SSE) 3,232 6.1 -20.5°
Reaches altitude 10° 19:10:39 10° 153° (SSE) 2,303 5.3 -21.1°
Enters shadow 19:14:30 43° 117° (ESE) 1,061 3.3 -22.0°
Exits shadow 19:20:40 - 2° (N) 2,374 5.4 -23.6°
Sets 19:22:49 0° 358° (N) 3,216 6.1 -24.1°
